Regional Weather Roundup
Issued by NWS Glasgow, MT

Home | Current Version | Previous Version | Text Only | Print | Product List | Glossary On
Versions: 1 2 3 4 5 6 7 8 9 10 11 12 13 14 15 16 17 18 19 20 21 22 23 24 25 26 27 28 29 30 31 32 33 34 35 36 37 38 39 40 41 42 43 44 45 46 47 48 49 50
000
ASUS45 KGGW 010015
RWRGGW
HOURLY WEATHER ROUNDUP FOR NORTHEAST MONTANA
NATIONAL WEATHER SERVICE GLASGOW MONTANA
600 PM MDT TUE SEP 30 2014

NOTE: "FAIR" INDICATES FEW OR NO CLOUDS BELOW 12,000 FEET WITH NO
SIGNIFICANT WEATHER AND/OR OBSTRUCTIONS TO VISISBILITY.

NORTHEAST MONTANA


CITY           SKY/WX    TMP DP  RH WIND       PRES   REMARKS
GLASGOW        MOCLDY    63  52  67 SW5       29.51F
6HR MIN TEMP:  58; 6HR MAX TEMP:  65;

PLENTYWOOD       N/A     52  50  93 E2          N/A
WOLF POINT     CLOUDY    58  53  84 SW3       29.53S
JORDAN           N/A     62  48  60 W9        29.56S
WINNETT          N/A     54  49  83 SW10        N/A
SIDNEY         CLOUDY    54  52  94 CALM      29.54F
GLENDIVE       CLOUDY    54  52  94 NE5       29.56R
MALTA            N/A     59  52  77 N10         N/A
OPHEIM           N/A     54  50  87 W7        29.39R

FORT PECK REPORTS


CITY           SKY/WX    TMP DP  RH WIND       PRES   REMARKS
FORT PECK        N/A     60  55  83 S8          N/A
THE PINES        N/A     62  53  72 SW3         N/A

SOUTHEAST MONTANA


CITY           SKY/WX    TMP DP  RH WIND       PRES   REMARKS
BILLINGS       CLOUDY    61  41  47 W14       29.70R
MILES CITY     CLOUDY    60  49  66 NW8       29.57R
BAKER          RAIN      54  53  97 N12       29.54R FOG
LIVINGSTON     CLOUDY    50  45  83 SW14      29.79F

CENTRAL MONTANA


CITY           SKY/WX    TMP DP  RH WIND       PRES   REMARKS
HAVRE          CLOUDY    56  47  71 NW21G28   29.69R
LEWISTOWN      LGT RAIN  54  45  71 NW17G24   29.72R
GREAT FALLS    RAIN      50  45  83 NW9       29.77R
CUT BANK       CLOUDY    47  44  90 N21       29.81R
HELENA         MOSUNNY   57  34  41 W23G33    29.81R
BUTTE          MOSUNNY   50  30  46 NW18G26   29.88R
BOZEMAN        CLOUDY    50  45  83 S12       29.83S

WESTERN MONTANA


CITY           SKY/WX    TMP DP  RH WIND       PRES   REMARKS
MISSOULA       MOSUNNY   52  39  61 N9        29.94S
KALISPELL      NOT AVBL

NORTH DAKOTA


CITY           SKY/WX    TMP DP  RH WIND       PRES   REMARKS
WILLISTON      CLOUDY    53  51  93 NE5       29.53S
DICKINSON      CLOUDY    52  50  93 N8        29.46S
MINOT          CLOUDY    51  49  92 E12       29.52F FOG
BISMARCK       CLOUDY    55  54  96 E20G31    29.38F

SOUTHERN SASKATCHEWAN


CITY           SKY/WX    TMP DP  RH WIND       PRES   REMARKS
REGINA         LGT RAIN  52  50  93 SE9       29.55F
MOOSE JAW      MOCLDY    59  54  82 E7        29.51F
ESTEVAN        LGT RAIN  50  50 100 SE10      29.56F FOG
SWIFT CURRENT  CLOUDY    54  48  82 NW21      29.58R



USA.gov is the U.S. government's official web portal to all federal, state and local government web resources and services.